FW8904 Weather Reports


time (UTC)temp
F
wind
direction
speed
knots
gust
knots
rain 1hr
in
rain 24hr
in
rain mn
in
humidity
%
barometer
mb
20260504231029 63 251 0.0 0.0 0.00 0.00 0.00 54 1010.1
20260504225532 63 136 0.0 0.0 0.00 0.00 0.00 53 1010.1
20260504224528 64 171 0.0 0.0 0.00 0.00 0.00 51 1010.0
20260504224029 65 133 0.0 5.2 0.00 0.00 0.00 50 1010.1
20260504222529 65 238 0.0 5.2 0.00 0.00 0.00 50 1009.8
20260504221528 65 256 0.0 0.0 0.00 0.00 0.00 50 1009.9
20260504220528 65 155 0.0 0.0 0.00 0.00 0.00 49 1009.8
20260504220030 66 220 0.0 0.0 0.00 0.00 0.00 48 1009.7
20260504214529 67 238 0.0 0.0 0.00 0.00 0.00 47 1009.8
20260504213525 68 221 0.0 0.0 0.00 0.00 0.00 45 1009.6
20260504212529 68 162 0.0 0.0 0.00 0.00 0.00 45 1009.6
20260504211524 70 152 0.0 0.0 0.00 0.00 0.00 44 1009.4
20260504210523 69 176 0.0 6.1 0.00 0.00 0.00 41 1009.5
20260504205525 70 217 0.0 3.5 0.00 0.00 0.00 41 1009.4
20260504205024 70 233 0.0 0.0 0.00 0.00 0.00 40 1009.4
20260504203525 69 296 0.0 1.7 0.00 0.00 0.00 40 1009.5
20260504202524 69 184 0.0 0.9 0.00 0.00 0.00 39 1009.4
20260504202026 68 269 0.0 3.5 0.00 0.00 0.00 39 1009.4
20260504200523 69 245 0.0 2.6 0.00 0.00 0.00 38 1009.6
20260504195524 70 234 0.9 7.8 0.00 0.00 0.00 37 1009.6
20260504194523 71 262 0.0 5.2 0.00 0.00 0.00 36 1009.4
20260504193523 71 234 0.0 0.9 0.00 0.00 0.00 36 1009.6
20260504192522 71 311 0.0 4.3 0.00 0.00 0.00 38 1009.6
20260504191520 71 202 0.0 2.6 0.00 0.00 0.00 36 1009.6
20260504190519 71 300 0.0 0.0 0.00 0.00 0.00 36 1009.6
20260504185525 71 305 0.0 5.2 0.00 0.00 0.00 35 1009.7
20260504184519 70 160 0.0 1.7 0.00 0.00 0.00 38 1009.8
20260504184022 69 176 0.9 8.7 0.00 0.00 0.00 37 1010.0
20260504182521 69 167 0.9 5.2 0.00 0.00 0.00 36 1010.1
20260504181520 69 233 0.9 9.6 0.00 0.00 0.00 34 1010.1
20260504180519 69 250 0.0 7.0 0.00 0.00 0.00 36 1010.2
20260504175525 69 219 0.0 6.1 0.00 0.00 0.00 35 1010.3
20260504174519 69 181 0.0 5.2 0.00 0.00 0.00 35 1010.4
20260504173520 69 214 0.0 0.0 0.00 0.00 0.00 36 1010.4
20260504172520 68 113 0.0 6.1 0.00 0.00 0.00 34 1010.7
20260504171520 68 200 0.9 11.3 0.00 0.00 0.00 35 1010.5
20260504170514 68 273 0.0 5.2 0.00 0.00 0.00 36 1010.5
20260504150507 65 240 0.0 5.2 0.00 0.00 0.00 42 1011.9
20260504140502 62 259 0.0 7.0 0.00 0.00 0.00 45 1012.1
20260504110454 47 293 0.9 8.7 0.00 0.00 0.00 65 1013.0
20260504100455 35 17 0.0 0.0 0.00 0.00 0.00 87 1012.7
20260504081953 45 238 0.0 0.0 0.00 0.00 0.00 64 1012.4
20260504050445 35 244 0.0 0.0 0.00 0.00 0.00 87 1012.6
20260504045448 35 244 0.0 0.0 0.00 0.00 0.00 86 1012.7
20260504044446 35 244 0.0 0.0 0.00 0.00 0.00 86 1012.7
20260504043445 35 245 0.0 0.0 0.00 0.00 0.00 85 1012.8
20260504042445 36 244 0.0 0.0 0.00 0.00 0.00 84 1012.7
20260504041444 36 245 0.0 0.0 0.00 0.00 0.00 84 1012.6
20260504035944 36 244 0.0 0.0 0.00 0.00 0.00 85 1012.5
20260504034443 36 245 0.0 0.0 0.00 0.00 0.00 84 1012.5
20260504033445 36 245 0.0 0.0 0.00 0.00 0.00 84 1012.4
20260504032442 36 244 0.0 0.0 0.00 0.00 0.00 84 1012.4
20260504031947 36 244 0.0 0.0 0.00 0.00 0.00 83 1012.4
20260504030443 36 245 0.0 0.0 0.00 0.00 0.00 83 1012.3
20260504025943 37 244 0.0 0.0 0.00 0.00 0.00 81 1012.2
20260504024945 37 244 0.0 0.0 0.00 0.00 0.00 80 1012.1
20260504023443 37 244 0.0 0.0 0.00 0.00 0.00 79 1012.0
20260504022444 38 245 0.0 0.0 0.00 0.00 0.00 78 1012.0
20260504021945 38 244 0.0 0.0 0.00 0.00 0.00 77 1011.9
20260504020942 38 240 0.0 0.0 0.00 0.00 0.00 77 1011.8
20260504015441 38 239 0.0 0.0 0.00 0.00 0.00 78 1011.8
20260504014441 38 243 0.0 0.0 0.00 0.00 0.00 79 1011.7
20260504013442 38 239 0.0 0.0 0.00 0.00 0.00 79 1011.6
20260504012942 38 239 0.0 0.0 0.00 0.00 0.00 78 1011.5
20260504011441 38 244 0.0 0.0 0.00 0.00 0.00 78 1011.4
20260504010442 39 244 0.0 0.0 0.00 0.00 0.00 76 1011.3
20260504005441 39 244 0.0 0.0 0.00 0.00 0.00 76 1011.1
20260504004944 40 244 0.0 0.0 0.00 0.00 0.00 74 1011.0
20260504003435 41 244 0.0 0.0 0.00 0.00 0.00 72 1010.9
20260504002434 42 244 0.0 0.0 0.00 0.00 0.00 70 1010.7
20260504001435 43 244 0.0 0.0 0.00 0.00 0.00 66 1010.6
20260504000434 44 244 0.0 0.0 0.00 0.00 0.00 63 1010.6
20260503235435 46 244 0.0 0.0 0.00 0.00 0.00 59 1010.6
20260503234434 47 244 0.0 0.0 0.00 0.00 0.00 54 1010.4
20260503233434 48 244 0.0 0.0 0.00 0.00 0.00 54 1010.5
20260503232437 49 244 0.0 0.0 0.00 0.00 0.00 52 1010.3